Time,TemperatureF,DewpointF,PressureIn,WindDirection,WindDirectionDegrees,WindSpeedMPH,WindSpeedGustMPH,Humidity,HourlyPrecipIn,Conditions,Clouds,dailyrainin,SoftwareType,DateUTC
2013-10-05 00:03:00,58.8,37.4,30.08,NNE,23,0.0,0.0,46,0.00,,,0.00,OpenJ2300 V2.0,2013-10-05 07:03:00,
2013-10-05 00:08:00,58.8,37.4,30.08,NNE,23,0.0,0.0,46,0.00,,,0.00,OpenJ2300 V2.0,2013-10-05 07:08:00,
2013-10-05 00:13:00,58.8,37.4,30.08,NNE,23,0.0,0.0,46,0.00,,,0.00,OpenJ2300 V2.0,2013-10-05 07:13:00,
2013-10-05 00:18:00,58.6,37.7,30.08,NNE,23,0.0,0.0,47,0.00,,,0.00,OpenJ2300 V2.0,2013-10-05 07:18:00,
2013-10-05 00:24:00,58.3,37.5,30.08,NNE,23,0.0,0.0,47,0.00,,,0.00,OpenJ2300 V2.0,2013-10-05 07:24:00,
2013-10-05 07:48:00,49.6,36.7,30.14,NNE,23,0.0,0.0,63,0.00,,,0.00,OpenJ2300 V2.0,2013-10-05 14:48:00,
2013-10-05 07:53:00,49.6,36.7,30.14,NNE,23,0.0,0.0,63,0.00,,,0.00,OpenJ2300 V2.0,2013-10-05 14:53:00,
2013-10-05 07:58:00,49.8,37.3,30.14,NNE,23,0.0,0.0,64,0.00,,,0.00,OpenJ2300 V2.0,2013-10-05 14:58:00,
2013-10-05 08:04:00,49.8,37.3,30.14,NNE,23,0.0,0.0,64,0.00,,,0.00,OpenJ2300 V2.0,2013-10-05 15:04:00,
2013-10-05 08:09:00,50.2,37.6,30.14,NNE,23,0.0,0.0,64,0.00,,,0.00,OpenJ2300 V2.0,2013-10-05 15:09:00,
2013-10-05 08:15:00,50.5,38.0,30.14,NNE,23,0.0,0.0,64,0.00,,,0.00,OpenJ2300 V2.0,2013-10-05 15:15:00,
2013-10-05 08:20:00,50.5,38.0,30.15,NNE,23,0.0,0.0,64,0.00,,,0.00,OpenJ2300 V2.0,2013-10-05 15:20:00,
2013-10-05 08:25:00,50.9,38.3,30.15,NNE,23,0.0,0.0,64,0.00,,,0.00,OpenJ2300 V2.0,2013-10-05 15:25:00,
2013-10-05 08:30:00,51.4,38.8,30.15,NNE,23,0.0,0.0,64,0.00,,,0.00,OpenJ2300 V2.0,2013-10-05 15:30:00,
2013-10-05 08:35:00,52.0,39.3,30.15,NNE,23,0.0,0.0,64,0.00,,,0.00,OpenJ2300 V2.0,2013-10-05 15:35:00,
2013-10-05 08:40:00,52.5,39.4,30.15,NNE,23,0.0,0.0,63,0.00,,,0.00,OpenJ2300 V2.0,2013-10-05 15:40:00,
2013-10-05 08:45:00,52.9,39.4,30.15,NNE,23,0.0,0.0,62,0.00,,,0.00,OpenJ2300 V2.0,2013-10-05 15:45:00,
2013-10-05 08:50:00,53.2,39.3,30.16,NNE,23,0.0,0.0,60,0.00,,,0.00,OpenJ2300 V2.0,2013-10-05 15:50:00,
2013-10-05 08:56:00,53.4,39.0,30.16,NNE,23,0.0,0.0,59,0.00,,,0.00,OpenJ2300 V2.0,2013-10-05 15:56:00,
2013-10-05 09:01:00,54.0,39.5,30.16,NNE,23,0.0,0.0,59,0.00,,,0.00,OpenJ2300 V2.0,2013-10-05 16:01:00,
2013-10-05 09:06:00,54.5,40.0,30.16,NNE,23,0.0,0.0,59,0.00,,,0.00,OpenJ2300 V2.0,2013-10-05 16:06:00,
2013-10-05 09:11:00,55.2,40.2,30.16,NNE,23,0.0,0.0,58,0.00,,,0.00,OpenJ2300 V2.0,2013-10-05 16:11:00,
2013-10-05 09:16:00,55.6,40.5,30.16,NNE,23,0.0,0.0,58,0.00,,,0.00,OpenJ2300 V2.0,2013-10-05 16:16:00,
2013-10-05 09:21:00,56.1,40.6,30.17,NNE,23,0.0,0.0,57,0.00,,,0.00,OpenJ2300 V2.0,2013-10-05 16:21:00,
2013-10-05 09:26:00,56.8,40.8,30.17,NNE,23,0.0,0.0,56,0.00,,,0.00,OpenJ2300 V2.0,2013-10-05 16:26:00,
2013-10-05 09:31:00,57.4,41.0,30.17,NNE,23,0.0,0.0,55,0.00,,,0.00,OpenJ2300 V2.0,2013-10-05 16:31:00,
2013-10-05 09:36:00,58.3,40.7,30.17,NNE,23,0.0,0.0,53,0.00,,,0.00,OpenJ2300 V2.0,2013-10-05 16:36:00,
2013-10-05 09:41:00,58.8,40.8,30.17,NNE,23,0.0,0.0,52,0.00,,,0.00,OpenJ2300 V2.0,2013-10-05 16:41:00,
2013-10-05 09:46:00,59.5,40.4,30.17,NNE,23,0.0,0.0,50,0.00,,,0.00,OpenJ2300 V2.0,2013-10-05 16:46:00,
2013-10-05 09:51:00,60.4,41.8,30.17,NNE,23,0.0,0.0,51,0.00,,,0.00,OpenJ2300 V2.0,2013-10-05 16:51:00,
2013-10-05 09:56:00,61.2,42.4,30.17,NNE,23,0.0,0.0,51,0.00,,,0.00,OpenJ2300 V2.0,2013-10-05 16:56:00,
2013-10-05 10:02:00,61.7,42.3,30.17,NNE,23,0.0,0.0,50,0.00,,,0.00,OpenJ2300 V2.0,2013-10-05 17:02:00,
2013-10-05 10:07:00,61.7,42.3,30.17,NNE,23,0.0,0.0,50,0.00,,,0.00,OpenJ2300 V2.0,2013-10-05 17:07:00,
2013-10-05 10:12:00,62.4,42.0,30.17,NNE,23,0.0,0.0,49,0.00,,,0.00,OpenJ2300 V2.0,2013-10-05 17:12:00,
2013-10-05 10:17:00,63.1,42.5,30.17,NNE,23,0.0,0.0,48,0.00,,,0.00,OpenJ2300 V2.0,2013-10-05 17:17:00,
2013-10-05 10:22:00,63.7,42.4,30.17,NNE,23,0.0,0.0,47,0.00,,,0.00,OpenJ2300 V2.0,2013-10-05 17:22:00,
2013-10-05 10:27:00,64.2,43.0,30.17,NNE,23,0.0,0.0,47,0.00,,,0.00,OpenJ2300 V2.0,2013-10-05 17:27:00,
2013-10-05 10:32:00,64.9,42.9,30.17,NNE,23,0.0,0.0,46,0.00,,,0.00,OpenJ2300 V2.0,2013-10-05 17:32:00,
2013-10-05 10:37:00,65.5,42.3,30.17,NNE,23,0.0,0.0,44,0.00,,,0.00,OpenJ2300 V2.0,2013-10-05 17:37:00,
2013-10-05 10:42:00,66.4,42.5,30.17,NNE,23,0.0,0.0,43,0.00,,,0.00,OpenJ2300 V2.0,2013-10-05 17:42:00,
2013-10-05 10:47:00,66.7,42.9,30.17,NNE,23,0.0,0.0,43,0.00,,,0.00,OpenJ2300 V2.0,2013-10-05 17:47:00,
2013-10-05 10:52:00,67.3,41.4,30.16,NNE,23,0.0,0.0,39,0.00,,,0.00,OpenJ2300 V2.0,2013-10-05 17:52:00,
2013-10-05 10:58:00,67.8,41.2,30.16,NNE,23,0.0,0.0,38,0.00,,,0.00,OpenJ2300 V2.0,2013-10-05 17:58:00,
2013-10-05 11:03:00,68.4,40.2,30.16,West,270,0.0,0.0,37,0.00,,,0.00,OpenJ2300 V2.0,2013-10-05 18:03:00,
2013-10-05 11:08:00,68.9,40.1,30.16,West,270,0.0,0.0,35,0.00,,,0.00,OpenJ2300 V2.0,2013-10-05 18:08:00,
2013-10-05 11:13:00,69.6,39.1,30.16,West,270,0.0,0.0,33,0.00,,,0.00,OpenJ2300 V2.0,2013-10-05 18:13:00,
2013-10-05 11:18:00,70.2,39.7,30.16,West,270,0.0,0.0,33,0.00,,,0.00,OpenJ2300 V2.0,2013-10-05 18:18:00,
2013-10-05 11:23:00,70.9,40.2,30.16,West,270,0.0,0.0,33,0.00,,,0.00,OpenJ2300 V2.0,2013-10-05 18:23:00,
2013-10-05 11:28:00,71.4,40.0,30.16,West,270,0.0,0.0,32,0.00,,,0.00,OpenJ2300 V2.0,2013-10-05 18:28:00,
2013-10-05 11:33:00,72.0,38.9,30.16,West,270,0.0,0.0,30,0.00,,,0.00,OpenJ2300 V2.0,2013-10-05 18:33:00,
2013-10-05 11:38:00,72.3,39.2,30.16,West,270,0.0,0.0,30,0.00,,,0.00,OpenJ2300 V2.0,2013-10-05 18:38:00,
2013-10-05 11:43:00,72.3,39.2,30.16,West,270,0.0,0.0,30,0.00,,,0.00,OpenJ2300 V2.0,2013-10-05 18:43:00,
2013-10-05 11:48:00,73.0,38.8,30.16,West,270,0.0,0.0,29,0.00,,,0.00,OpenJ2300 V2.0,2013-10-05 18:48:00,
2013-10-05 11:53:00,73.2,37.9,30.16,West,270,0.0,0.0,28,0.00,,,0.00,OpenJ2300 V2.0,2013-10-05 18:53:00,
2013-10-05 11:59:00,73.4,38.1,30.16,West,270,0.0,0.0,28,0.00,,,0.00,OpenJ2300 V2.0,2013-10-05 18:59:00,
2013-10-05 12:04:00,73.9,38.6,30.16,West,270,0.0,0.0,28,0.00,,,0.00,OpenJ2300 V2.0,2013-10-05 19:04:00,
2013-10-05 12:09:00,74.3,38.9,30.16,West,270,0.0,0.0,28,0.00,,,0.00,OpenJ2300 V2.0,2013-10-05 19:09:00,
2013-10-05 12:14:00,74.5,39.0,30.16,West,270,0.0,0.0,28,0.00,,,0.00,OpenJ2300 V2.0,2013-10-05 19:14:00,
2013-10-05 12:19:00,74.8,38.3,30.15,West,270,0.0,0.0,27,0.00,,,0.00,OpenJ2300 V2.0,2013-10-05 19:19:00,
2013-10-05 12:24:00,75.0,38.5,30.15,West,270,0.0,0.0,27,0.00,,,0.00,OpenJ2300 V2.0,2013-10-05 19:24:00,
2013-10-05 12:29:00,75.4,38.8,30.15,West,270,0.0,0.0,27,0.00,,,0.00,OpenJ2300 V2.0,2013-10-05 19:29:00,
2013-10-05 12:34:00,75.7,38.1,30.15,West,270,0.0,0.0,26,0.00,,,0.00,OpenJ2300 V2.0,2013-10-05 19:34:00,
2013-10-05 12:39:00,75.9,37.2,30.15,West,270,0.0,0.0,25,0.00,,,0.00,OpenJ2300 V2.0,2013-10-05 19:39:00,
2013-10-05 12:44:00,76.1,37.3,30.15,West,270,0.0,0.0,25,0.00,,,0.00,OpenJ2300 V2.0,2013-10-05 19:44:00,
2013-10-05 12:49:00,76.6,37.8,30.14,West,270,0.0,0.0,25,0.00,,,0.00,OpenJ2300 V2.0,2013-10-05 19:49:00,
2013-10-05 12:54:00,76.8,36.9,30.14,NW,315,0.0,2.9,24,0.00,,,0.00,OpenJ2300 V2.0,2013-10-05 19:54:00,
2013-10-05 12:59:00,77.2,37.2,30.14,NW,315,0.0,2.9,24,0.00,,,0.00,OpenJ2300 V2.0,2013-10-05 19:59:00,
2013-10-05 13:04:00,77.4,37.4,30.14,NW,315,0.0,2.9,24,0.00,,,0.00,OpenJ2300 V2.0,2013-10-05 20:04:00,
2013-10-05 13:09:00,77.7,36.6,30.14,NW,315,0.0,2.9,23,0.00,,,0.00,OpenJ2300 V2.0,2013-10-05 20:09:00,
2013-10-05 13:14:00,78.1,37.9,30.14,NW,315,0.0,0.0,24,0.00,,,0.00,OpenJ2300 V2.0,2013-10-05 20:14:00,
2013-10-05 13:19:00,78.1,37.9,30.12,NW,315,0.0,0.0,24,0.00,,,0.00,OpenJ2300 V2.0,2013-10-05 20:19:00,
2013-10-05 13:24:00,78.1,37.9,30.12,NW,315,0.0,0.0,24,0.00,,,0.00,OpenJ2300 V2.0,2013-10-05 20:24:00,
2013-10-05 13:30:00,78.6,37.3,30.12,NW,315,0.0,0.0,23,0.00,,,0.00,OpenJ2300 V2.0,2013-10-05 20:30:00,
2013-10-05 13:35:00,78.8,37.5,30.12,NW,315,0.0,0.0,23,0.00,,,0.00,OpenJ2300 V2.0,2013-10-05 20:35:00,
2013-10-05 13:40:00,79.3,39.0,30.12,NW,315,0.0,0.0,23,0.00,,,0.00,OpenJ2300 V2.0,2013-10-05 20:40:00,
2013-10-05 13:45:00,79.5,38.1,30.12,NW,315,0.0,0.0,23,0.00,,,0.00,OpenJ2300 V2.0,2013-10-05 20:45:00,
2013-10-05 13:50:00,79.9,37.6,30.11,NW,315,0.0,0.0,22,0.00,,,0.00,OpenJ2300 V2.0,2013-10-05 20:50:00,
2013-10-05 13:55:00,80.2,37.7,30.11,NW,315,0.0,1.1,22,0.00,,,0.00,OpenJ2300 V2.0,2013-10-05 20:55:00,
2013-10-05 14:00:00,80.4,37.9,30.11,NNW,338,0.0,2.7,22,0.00,,,0.00,OpenJ2300 V2.0,2013-10-05 21:00:00,
2013-10-05 14:05:00,81.0,37.3,30.11,West,270,0.0,2.7,21,0.00,,,0.00,OpenJ2300 V2.0,2013-10-05 21:05:00,
2013-10-05 14:10:00,81.3,37.4,30.11,WNW,293,0.0,4.0,21,0.00,,,0.00,OpenJ2300 V2.0,2013-10-05 21:10:00,
2013-10-05 14:15:00,81.3,37.6,30.11,WNW,293,0.0,4.0,21,0.00,,,0.00,OpenJ2300 V2.0,2013-10-05 21:15:00,
2013-10-05 14:20:00,81.5,36.8,30.09,NNW,338,0.0,4.0,21,0.00,,,0.00,OpenJ2300 V2.0,2013-10-05 21:20:00,
2013-10-05 14:25:00,82.0,37.9,30.09,NNW,338,0.0,4.0,21,0.00,,,0.00,OpenJ2300 V2.0,2013-10-05 21:25:00,
2013-10-05 14:31:00,82.0,37.1,30.09,NNW,338,0.0,2.5,20,0.00,,,0.00,OpenJ2300 V2.0,2013-10-05 21:31:00,
2013-10-05 14:36:00,82.2,37.3,30.09,North,0,0.0,3.6,20,0.00,,,0.00,OpenJ2300 V2.0,2013-10-05 21:36:00,
2013-10-05 14:41:00,82.6,37.5,30.09,NNW,338,2.7,4.9,20,0.00,,,0.00,OpenJ2300 V2.0,2013-10-05 21:41:00,
2013-10-05 14:46:00,82.9,37.8,30.09,NNW,338,0.0,5.4,20,0.00,,,0.00,OpenJ2300 V2.0,2013-10-05 21:46:00,
2013-10-05 14:51:00,83.1,38.0,30.09,NNW,338,2.5,5.4,20,0.00,,,0.00,OpenJ2300 V2.0,2013-10-05 21:51:00,
2013-10-05 14:56:00,83.1,38.0,30.09,NNW,338,0.0,5.4,20,0.00,,,0.00,OpenJ2300 V2.0,2013-10-05 21:56:00,
2013-10-05 15:01:00,83.1,38.0,30.09,WNW,293,0.0,5.4,20,0.00,,,0.00,OpenJ2300 V2.0,2013-10-05 22:01:00,
2013-10-05 15:07:00,83.3,38.1,30.09,NW,315,0.0,5.6,20,0.00,,,0.00,OpenJ2300 V2.0,2013-10-05 22:07:00,
2013-10-05 15:12:00,83.3,38.1,30.09,NNW,338,4.0,5.6,20,0.00,,,0.00,OpenJ2300 V2.0,2013-10-05 22:12:00,
2013-10-05 15:17:00,83.3,38.1,30.09,NNW,338,0.0,8.5,20,0.00,,,0.00,OpenJ2300 V2.0,2013-10-05 22:17:00,
2013-10-05 15:22:00,83.3,38.3,30.09,NW,315,1.1,8.5,20,0.00,,,0.00,OpenJ2300 V2.0,2013-10-05 22:22:00,
2013-10-05 15:27:00,83.5,38.3,30.09,NW,315,0.0,8.5,20,0.00,,,0.00,OpenJ2300 V2.0,2013-10-05 22:27:00,
2013-10-05 15:32:00,83.5,38.3,30.09,NNW,338,0.0,8.5,20,0.00,,,0.00,OpenJ2300 V2.0,2013-10-05 22:32:00,
2013-10-05 15:38:00,83.5,38.3,30.09,North,0,0.0,7.6,20,0.00,,,0.00,OpenJ2300 V2.0,2013-10-05 22:38:00,
2013-10-05 15:43:00,83.5,38.3,30.09,NNW,338,0.0,7.6,20,0.00,,,0.00,OpenJ2300 V2.0,2013-10-05 22:43:00,
2013-10-05 15:48:00,83.3,38.1,30.09,NW,315,2.5,6.7,20,0.00,,,0.00,OpenJ2300 V2.0,2013-10-05 22:48:00,
2013-10-05 15:53:00,83.3,36.4,30.09,NNW,338,2.0,8.5,18,0.00,,,0.00,OpenJ2300 V2.0,2013-10-05 22:53:00,
2013-10-05 15:58:00,83.3,36.4,30.09,NW,315,0.0,8.5,18,0.00,,,0.00,OpenJ2300 V2.0,2013-10-05 22:58:00,
2013-10-05 16:03:00,83.3,36.4,30.09,West,270,0.0,8.5,18,0.00,,,0.00,OpenJ2300 V2.0,2013-10-05 23:03:00,
2013-10-05 16:08:00,83.3,36.4,30.09,WNW,293,0.0,8.5,18,0.00,,,0.00,OpenJ2300 V2.0,2013-10-05 23:08:00,
2013-10-05 16:13:00,83.3,36.3,30.09,NW,315,4.7,7.8,18,0.00,,,0.00,OpenJ2300 V2.0,2013-10-05 23:13:00,
2013-10-05 16:18:00,83.1,36.3,30.09,NW,315,0.0,7.6,18,0.00,,,0.00,OpenJ2300 V2.0,2013-10-05 23:18:00,
2013-10-05 16:23:00,83.1,36.3,30.08,NNW,338,4.9,8.5,18,0.00,,,0.00,OpenJ2300 V2.0,2013-10-05 23:23:00,
2013-10-05 17:47:00,81.7,35.1,30.07,WNW,293,0.0,0.0,18,0.00,,,0.00,OpenJ2300 V2.0,2013-10-06 00:47:00,
2013-10-05 17:53:00,81.3,34.8,30.07,NW,315,0.0,3.4,18,0.00,,,0.00,OpenJ2300 V2.0,2013-10-06 00:53:00,
2013-10-05 17:58:00,81.1,34.7,30.07,NW,315,0.0,3.4,18,0.00,,,0.00,OpenJ2300 V2.0,2013-10-06 00:58:00,
2013-10-05 18:04:00,80.8,34.4,30.07,NW,315,0.0,3.4,18,0.00,,,0.00,OpenJ2300 V2.0,2013-10-06 01:04:00,
2013-10-05 18:09:00,80.6,34.3,30.07,NNW,338,0.0,3.6,18,0.00,,,0.00,OpenJ2300 V2.0,2013-10-06 01:09:00,
2013-10-05 18:14:00,80.4,34.1,30.07,NNW,338,0.0,3.6,18,0.00,,,0.00,OpenJ2300 V2.0,2013-10-06 01:14:00,
2013-10-05 18:20:00,80.2,32.3,30.07,NNW,338,5.6,5.8,17,0.00,,,0.00,OpenJ2300 V2.0,2013-10-06 01:20:00,
2013-10-05 18:25:00,79.9,31.9,30.07,NNW,338,0.0,5.8,17,0.00,,,0.00,OpenJ2300 V2.0,2013-10-06 01:25:00,
2013-10-05 18:30:00,79.9,31.9,30.07,NNW,338,0.0,5.8,17,0.00,,,0.00,OpenJ2300 V2.0,2013-10-06 01:30:00,
2013-10-05 18:35:00,79.5,31.6,30.07,NW,315,0.0,5.8,17,0.00,,,0.00,OpenJ2300 V2.0,2013-10-06 01:35:00,
2013-10-05 18:40:00,79.2,32.8,30.07,NW,315,0.0,2.9,18,0.00,,,0.00,OpenJ2300 V2.0,2013-10-06 01:40:00,
2013-10-05 18:45:00,78.6,34.2,30.07,NW,315,0.0,2.9,20,0.00,,,0.00,OpenJ2300 V2.0,2013-10-06 01:45:00,
2013-10-05 18:50:00,78.6,34.2,30.08,NW,315,0.0,2.9,20,0.00,,,0.00,OpenJ2300 V2.0,2013-10-06 01:50:00,
2013-10-05 18:56:00,78.1,33.8,30.08,NW,315,0.0,0.0,20,0.00,,,0.00,OpenJ2300 V2.0,2013-10-06 01:56:00,
2013-10-05 19:01:00,77.9,34.7,30.08,NW,315,0.0,0.0,21,0.00,,,0.00,OpenJ2300 V2.0,2013-10-06 02:01:00,
2013-10-05 19:06:00,77.5,35.4,30.08,NW,315,0.0,0.0,21,0.00,,,0.00,OpenJ2300 V2.0,2013-10-06 02:06:00,
2013-10-05 19:11:00,77.0,36.0,30.08,NW,315,0.0,0.0,23,0.00,,,0.00,OpenJ2300 V2.0,2013-10-06 02:11:00,
2013-10-05 19:16:00,76.3,35.4,30.08,NW,315,0.0,0.0,23,0.00,,,0.00,OpenJ2300 V2.0,2013-10-06 02:16:00,
2013-10-05 19:21:00,75.7,36.0,30.08,NW,315,0.0,0.0,24,0.00,,,0.00,OpenJ2300 V2.0,2013-10-06 02:21:00,
2013-10-05 19:27:00,75.0,36.4,30.08,NW,315,0.0,0.0,25,0.00,,,0.00,OpenJ2300 V2.0,2013-10-06 02:27:00,
2013-10-05 19:32:00,74.5,37.0,30.08,NW,315,0.0,0.0,26,0.00,,,0.00,OpenJ2300 V2.0,2013-10-06 02:32:00,
2013-10-05 19:37:00,73.9,37.5,30.08,NW,315,0.0,0.0,27,0.00,,,0.00,OpenJ2300 V2.0,2013-10-06 02:37:00,
2013-10-05 19:42:00,73.4,38.1,30.08,NW,315,0.0,0.0,28,0.00,,,0.00,OpenJ2300 V2.0,2013-10-06 02:42:00,
2013-10-05 19:47:00,73.0,38.8,30.08,NW,315,0.0,0.0,29,0.00,,,0.00,OpenJ2300 V2.0,2013-10-06 02:47:00,
2013-10-05 19:52:00,72.5,38.4,30.08,NW,315,0.0,0.0,29,0.00,,,0.00,OpenJ2300 V2.0,2013-10-06 02:52:00,
2013-10-05 19:57:00,72.0,38.9,30.08,NW,315,0.0,0.0,30,0.00,,,0.00,OpenJ2300 V2.0,2013-10-06 02:57:00,
2013-10-05 20:02:00,71.4,38.5,30.08,NW,315,0.0,0.0,30,0.00,,,0.00,OpenJ2300 V2.0,2013-10-06 03:02:00,
2013-10-05 20:07:00,71.2,39.1,30.08,NW,315,0.0,0.0,31,0.00,,,0.00,OpenJ2300 V2.0,2013-10-06 03:07:00,
2013-10-05 20:12:00,70.7,38.6,30.08,NW,315,0.0,0.0,31,0.00,,,0.00,OpenJ2300 V2.0,2013-10-06 03:12:00,
2013-10-05 20:17:00,70.3,38.3,30.08,NW,315,0.0,0.0,31,0.00,,,0.00,OpenJ2300 V2.0,2013-10-06 03:17:00,
2013-10-05 20:22:00,70.3,38.3,30.08,NW,315,0.0,0.0,31,0.00,,,0.00,OpenJ2300 V2.0,2013-10-06 03:22:00,
2013-10-05 20:27:00,70.0,39.4,30.08,NW,315,0.0,0.0,32,0.00,,,0.00,OpenJ2300 V2.0,2013-10-06 03:27:00,
2013-10-05 20:32:00,69.4,38.9,30.08,NW,315,0.0,0.0,33,0.00,,,0.00,OpenJ2300 V2.0,2013-10-06 03:32:00,
2013-10-05 20:37:00,68.9,39.2,30.08,NW,315,0.0,0.0,34,0.00,,,0.00,OpenJ2300 V2.0,2013-10-06 03:37:00,
2013-10-05 20:42:00,68.5,38.9,30.08,NW,315,0.0,0.0,34,0.00,,,0.00,OpenJ2300 V2.0,2013-10-06 03:42:00,
2013-10-05 20:48:00,68.2,38.5,30.08,NW,315,0.0,0.0,34,0.00,,,0.00,OpenJ2300 V2.0,2013-10-06 03:48:00,
2013-10-05 20:53:00,67.8,38.9,30.08,NW,315,0.0,0.0,35,0.00,,,0.00,OpenJ2300 V2.0,2013-10-06 03:53:00,
2013-10-05 20:58:00,67.8,38.9,30.08,NW,315,0.0,0.0,35,0.00,,,0.00,OpenJ2300 V2.0,2013-10-06 03:58:00,
2013-10-05 21:03:00,67.6,38.8,30.08,WNW,293,0.0,0.0,35,0.00,,,0.00,OpenJ2300 V2.0,2013-10-06 04:03:00,
2013-10-05 21:08:00,67.3,39.1,30.08,WNW,293,0.0,0.0,36,0.00,,,0.00,OpenJ2300 V2.0,2013-10-06 04:08:00,
2013-10-05 21:13:00,66.7,38.8,30.08,WNW,293,0.0,0.0,36,0.00,,,0.00,OpenJ2300 V2.0,2013-10-06 04:13:00,
2013-10-05 21:18:00,66.6,39.3,30.09,WNW,293,0.0,0.0,37,0.00,,,0.00,OpenJ2300 V2.0,2013-10-06 04:18:00,
2013-10-05 21:23:00,66.4,39.9,30.09,WNW,293,0.0,0.0,38,0.00,,,0.00,OpenJ2300 V2.0,2013-10-06 04:23:00,
2013-10-05 21:28:00,66.0,39.6,30.09,WNW,293,0.0,0.0,38,0.00,,,0.00,OpenJ2300 V2.0,2013-10-06 04:28:00,
2013-10-05 21:33:00,65.8,39.4,30.09,WNW,293,0.0,0.0,38,0.00,,,0.00,OpenJ2300 V2.0,2013-10-06 04:33:00,
2013-10-05 21:38:00,65.5,39.8,30.09,WNW,293,0.0,0.0,39,0.00,,,0.00,OpenJ2300 V2.0,2013-10-06 04:38:00,
2013-10-05 21:43:00,65.1,39.5,30.09,WNW,293,0.0,0.0,39,0.00,,,0.00,OpenJ2300 V2.0,2013-10-06 04:43:00,
2013-10-05 21:49:00,64.9,39.3,30.09,WNW,293,0.0,0.0,39,0.00,,,0.00,OpenJ2300 V2.0,2013-10-06 04:49:00,
2013-10-05 21:54:00,64.6,39.7,30.09,WNW,293,0.0,0.0,41,0.00,,,0.00,OpenJ2300 V2.0,2013-10-06 04:54:00,
2013-10-05 21:59:00,64.6,39.7,30.09,WNW,293,0.0,0.0,41,0.00,,,0.00,OpenJ2300 V2.0,2013-10-06 04:59:00,
2013-10-05 22:04:00,64.2,39.4,30.09,WNW,293,0.0,0.0,41,0.00,,,0.00,OpenJ2300 V2.0,2013-10-06 05:04:00,
2013-10-05 22:09:00,64.2,39.4,30.09,WNW,293,0.0,0.0,41,0.00,,,0.00,OpenJ2300 V2.0,2013-10-06 05:09:00,
2013-10-05 22:15:00,64.0,39.8,30.09,WNW,293,0.0,0.0,42,0.00,,,0.00,OpenJ2300 V2.0,2013-10-06 05:15:00,
2013-10-05 22:20:00,63.9,39.1,30.10,WNW,293,0.0,0.0,41,0.00,,,0.00,OpenJ2300 V2.0,2013-10-06 05:20:00,
2013-10-05 22:25:00,63.7,39.5,30.10,WNW,293,0.0,0.0,42,0.00,,,0.00,OpenJ2300 V2.0,2013-10-06 05:25:00,
2013-10-05 22:31:00,63.3,39.2,30.10,WNW,293,0.0,0.0,42,0.00,,,0.00,OpenJ2300 V2.0,2013-10-06 05:31:00,
2013-10-05 22:36:00,63.3,39.2,30.10,WNW,293,0.0,0.0,42,0.00,,,0.00,OpenJ2300 V2.0,2013-10-06 05:36:00,
2013-10-05 22:41:00,63.1,39.6,30.10,WNW,293,0.0,0.0,43,0.00,,,0.00,OpenJ2300 V2.0,2013-10-06 05:41:00,
2013-10-05 22:46:00,62.8,39.3,30.10,WNW,293,0.0,0.0,43,0.00,,,0.00,OpenJ2300 V2.0,2013-10-06 05:46:00,
2013-10-05 22:51:00,62.6,39.1,30.09,WNW,293,0.0,0.0,43,0.00,,,0.00,OpenJ2300 V2.0,2013-10-06 05:51:00,
2013-10-05 22:56:00,62.6,39.1,30.09,WNW,293,0.0,0.0,43,0.00,,,0.00,OpenJ2300 V2.0,2013-10-06 05:56:00,
2013-10-05 23:01:00,62.4,38.9,30.09,WNW,293,0.0,0.0,43,0.00,,,0.00,OpenJ2300 V2.0,2013-10-06 06:01:00,
2013-10-05 23:06:00,62.2,38.8,30.09,WNW,293,0.0,0.0,43,0.00,,,0.00,OpenJ2300 V2.0,2013-10-06 06:06:00,
2013-10-05 23:11:00,61.9,39.0,30.09,WNW,293,0.0,0.0,44,0.00,,,0.00,OpenJ2300 V2.0,2013-10-06 06:11:00,
2013-10-05 23:16:00,61.7,38.9,30.09,WNW,293,0.0,0.0,44,0.00,,,0.00,OpenJ2300 V2.0,2013-10-06 06:16:00,
2013-10-05 23:21:00,61.5,39.3,30.09,WNW,293,0.0,0.0,45,0.00,,,0.00,OpenJ2300 V2.0,2013-10-06 06:21:00,
2013-10-05 23:26:00,61.3,39.1,30.09,WNW,293,0.0,0.0,45,0.00,,,0.00,OpenJ2300 V2.0,2013-10-06 06:26:00,
2013-10-05 23:31:00,61.0,39.4,30.09,WNW,293,0.0,0.0,46,0.00,,,0.00,OpenJ2300 V2.0,2013-10-06 06:31:00,
2013-10-05 23:36:00,61.0,39.4,30.09,WNW,293,0.0,0.0,46,0.00,,,0.00,OpenJ2300 V2.0,2013-10-06 06:36:00,
2013-10-05 23:42:00,60.6,39.0,30.09,WNW,293,0.0,0.0,46,0.00,,,0.00,OpenJ2300 V2.0,2013-10-06 06:42:00,
2013-10-05 23:47:00,60.6,39.6,30.09,WNW,293,0.0,0.0,47,0.00,,,0.00,OpenJ2300 V2.0,2013-10-06 06:47:00,
2013-10-05 23:52:00,60.4,39.5,30.09,WNW,293,0.0,0.0,47,0.00,,,0.00,OpenJ2300 V2.0,2013-10-06 06:52:00,
2013-10-05 23:58:00,60.1,39.1,30.09,WNW,293,0.0,0.0,47,0.00,,,0.00,OpenJ2300 V2.0,2013-10-06 06:58:00,